CW7563 Weather Reports


time (UTC)temp
C
wind
direction
speed
KPH
gust
KPH
rain 1hr
cm
rain 24hr
cm
rain mn
cm
humidity
%
barometer
mb
20260510160806 13 223 1.6 4.8 0.00 0.00 0.00 77 1018.1
20260510160306 13 187 3.2 4.8 0.00 0.00 0.00 76 1018.2
20260510155806 13 228 1.6 8.0 0.00 0.00 0.00 77 1018.1
20260510154806 13 292 4.8 9.7 0.00 0.00 0.00 77 1018.2
20260510154306 13 289 1.6 4.8 0.00 0.00 0.00 79 1018.2
20260510153806 13 232 3.2 4.8 0.00 0.00 0.00 79 1018.0
20260510153306 13 225 3.2 4.8 0.00 0.00 0.00 79 1017.9
20260510152806 12 216 1.6 8.0 0.00 0.00 0.00 80 1017.9
20260510152308 12 231 3.2 4.8 0.00 0.00 0.00 81 1017.8
20260510151806 12 244 0.0 4.8 0.00 0.00 0.00 81 1017.7
20260510151306 12 237 3.2 4.8 0.00 0.00 0.00 82 1017.7
20260510150805 12 239 1.6 3.2 0.00 0.00 0.00 82 1017.6
20260510150306 12 244 1.6 4.8 0.00 0.00 0.00 82 1017.6
20260510145806 12 245 1.6 4.8 0.00 0.00 0.00 82 1017.6
20260510145306 12 297 3.2 8.0 0.00 0.00 0.00 81 1017.9
20260510144806 12 242 3.2 4.8 0.00 0.00 0.00 81 1017.7
20260510144305 12 240 1.6 4.8 0.00 0.00 0.00 81 1017.4
20260510143307 12 323 1.6 9.7 0.00 0.00 0.00 82 1017.5
20260510142806 12 266 1.6 4.8 0.00 0.00 0.00 82 1017.5
20260510141806 12 293 1.6 4.8 0.00 0.00 0.00 83 1017.1
20260510141305 12 297 1.6 3.2 0.00 0.00 0.00 83 1017.1
20260510140806 12 297 0.0 0.0 0.00 0.00 0.00 83 1017.0
20260510135806 12 299 1.6 4.8 0.00 0.00 0.00 84 1016.9
20260510135306 12 233 0.0 4.8 0.00 0.00 0.00 85 1017.0
20260510134306 11 292 0.0 1.6 0.00 0.00 0.00 87 1016.9
20260510133805 11 292 1.6 3.2 0.00 0.00 0.00 87 1016.9
20260510133306 11 292 0.0 3.2 0.00 0.00 0.00 88 1016.8
20260510132806 11 292 3.2 4.8 0.00 0.00 0.00 88 1017.0
20260510132306 11 293 1.6 1.6 0.00 0.00 0.00 87 1016.8
20260510131806 11 293 1.6 3.2 0.00 0.00 0.00 87 1016.8
20260510131305 11 293 1.6 1.6 0.00 0.00 0.00 87 1016.7
20260510130306 11 293 0.0 1.6 0.00 0.00 0.00 87 1016.7
20260510125805 11 293 0.0 3.2 0.00 0.00 0.00 87 1016.7
20260510125307 11 294 1.6 3.2 0.00 0.00 0.00 87 1016.6
20260510124806 11 292 0.0 1.6 0.00 0.00 0.00 86 1017.0
20260510124306 11 292 0.0 1.6 0.00 0.00 0.00 86 1017.0
20260510123806 11 292 1.6 3.2 0.00 0.00 0.00 86 1017.0
20260510123305 11 293 1.6 3.2 0.00 0.00 0.00 85 1017.0
20260510122805 11 293 1.6 3.2 0.00 0.00 0.00 85 1016.8
20260510122306 11 293 1.6 3.2 0.00 0.00 0.00 85 1016.8
20260510121806 12 294 1.6 3.2 0.00 0.00 0.00 84 1016.8
20260510121306 12 223 0.0 1.6 0.00 0.00 0.00 84 1016.8
20260510120806 12 223 0.0 1.6 0.00 0.00 0.00 84 1016.8
20260510120306 12 224 1.6 3.2 0.00 0.00 0.00 84 1016.7
20260510115805 12 224 1.6 4.8 0.00 0.00 0.00 84 1016.7
20260510115307 12 222 1.6 4.8 0.00 0.00 0.00 84 1016.8
20260510114805 12 219 3.2 4.8 0.00 0.00 0.00 84 1016.7
20260510114306 12 245 1.6 4.8 0.00 0.00 0.00 84 1016.5
20260510113805 12 253 3.2 4.8 0.00 0.00 0.00 84 1016.6
20260510113305 12 220 0.0 3.2 0.00 0.00 0.00 84 1016.5
20260510112805 12 220 0.0 4.8 0.00 0.00 0.00 84 1016.4
20260510111805 12 252 3.2 8.0 0.00 0.00 0.00 83 1016.7
20260510111306 12 226 3.2 8.0 0.00 0.00 0.00 83 1016.6
20260510110805 12 245 3.2 4.8 0.00 0.00 0.00 83 1016.5
20260510110306 12 229 3.2 4.8 0.00 0.00 0.00 83 1016.3
20260510105306 13 263 0.0 3.2 0.00 0.00 0.00 82 1016.3
20260510104806 13 263 3.2 4.8 0.00 0.00 0.00 81 1016.3
20260510104306 13 265 3.2 8.0 0.00 0.00 0.00 81 1016.2
20260510103806 13 249 1.6 4.8 0.00 0.00 0.00 82 1016.1
20260510103306 13 272 3.2 4.8 0.00 0.00 0.00 81 1016.1
20260510102805 13 251 1.6 4.8 0.00 0.00 0.00 81 1015.9
20260510102306 13 295 1.6 4.8 0.00 0.00 0.00 81 1015.8
20260510101805 13 289 1.6 4.8 0.00 0.00 0.00 81 1015.8
20260510101305 13 257 1.6 4.8 0.00 0.00 0.00 81 1015.6
20260510100306 13 248 1.6 3.2 0.00 0.00 0.00 81 1015.4
20260510095805 13 247 0.0 3.2 0.00 0.00 0.00 81 1015.3
20260510095306 13 247 1.6 3.2 0.00 0.00 0.00 81 1015.1
20260510094805 13 247 1.6 3.2 0.00 0.00 0.00 80 1014.9
20260510094305 13 247 0.0 1.6 0.00 0.00 0.00 80 1015.0
20260510093806 13 247 0.0 1.6 0.00 0.00 0.00 80 1015.0
20260510093306 13 247 0.0 3.2 0.00 0.00 0.00 80 1015.2
20260510092806 13 247 1.6 3.2 0.00 0.00 0.00 79 1015.3
20260510092307 14 248 1.6 4.8 0.00 0.00 0.00 79 1015.2
20260510091805 14 230 0.0 3.2 0.00 0.00 0.00 78 1015.3
20260510091305 14 249 1.6 4.8 0.00 0.00 0.00 78 1015.2
20260510090305 14 231 3.2 4.8 0.00 0.00 0.00 77 1015.2
20260510085805 13 209 1.6 4.8 0.00 0.00 0.00 78 1015.1
20260510085306 13 198 1.6 4.8 0.00 0.00 0.00 79 1015.1
20260510084305 13 155 0.0 0.0 0.00 0.00 0.00 78 1015.0
20260510083805 13 155 0.0 0.0 0.00 0.00 0.00 77 1014.9
20260510083305 13 155 0.0 0.0 0.00 0.00 0.00 78 1014.9
20260510082805 13 155 0.0 1.6 0.00 0.00 0.00 78 1014.9
20260510081805 13 155 0.0 0.0 0.00 0.00 0.00 77 1014.9
20260510080305 14 155 1.6 4.8 0.00 0.00 0.00 75 1014.8
20260510075805 15 155 3.2 4.8 0.00 0.00 0.00 75 1014.8
20260510074805 15 155 3.2 4.8 0.00 0.00 0.00 74 1014.9
20260510074305 15 155 3.2 4.8 0.00 0.00 0.00 74 1014.8
20260510073804 15 155 3.2 4.8 0.00 0.00 0.00 73 1014.7
20260510073307 15 155 3.2 4.8 0.00 0.00 0.00 73 1014.8
20260510072805 15 155 3.2 4.8 0.00 0.00 0.00 73 1014.8
20260510072306 15 155 1.6 3.2 0.00 0.00 0.00 73 1014.8
20260510071805 15 155 1.6 3.2 0.00 0.00 0.00 73 1014.8
20260510071305 15 155 1.6 4.8 0.00 0.00 0.00 73 1014.8
20260510070827 15 154 1.6 3.2 0.00 0.00 0.00 72 1014.8
20260510070306 15 154 3.2 4.8 0.00 0.00 0.00 71 1014.8
20260510065806 16 286 3.2 4.8 0.00 0.00 0.00 71 1014.8
20260510065306 15 287 1.6 3.2 0.00 0.00 0.00 71 1014.8
20260510064805 15 287 1.6 1.6 0.00 0.00 0.00 71 1014.8
20260510064305 16 287 0.0 3.2 0.00 0.00 0.00 70 1014.7
20260510063804 16 287 0.0 1.6 0.00 0.00 0.00 69 1014.7
20260510063305 16 287 1.6 3.2 0.00 0.00 0.00 69 1014.6
20260510062805 16 287 3.2 3.2 0.00 0.00 0.00 68 1014.6
20260510062307 16 287 0.0 1.6 0.00 0.00 0.00 67 1014.6
20260510061805 17 287 1.6 3.2 0.00 0.00 0.00 66 1014.6
20260510061305 17 287 1.6 1.6 0.00 0.00 0.00 65 1014.6
20260510060805 17 287 1.6 3.2 0.00 0.00 0.00 64 1014.7
20260510060305 17 306 1.6 3.2 0.00 0.00 0.00 64 1014.7
20260510055805 17 313 0.0 1.6 0.00 0.00 0.00 65 1014.6
20260510054805 17 313 1.6 3.2 0.00 0.00 0.00 64 1014.6
20260510054305 17 313 0.0 1.6 0.00 0.00 0.00 64 1014.6
20260510053306 18 313 1.6 1.6 0.00 0.00 0.00 62 1014.5
20260510052804 18 313 1.6 3.2 0.00 0.00 0.00 61 1014.5
20260510052306 18 314 0.0 1.6 0.00 0.00 0.00 60 1014.4
20260510051805 19 314 0.0 1.6 0.00 0.00 0.00 59 1014.4
20260510051304 19 314 0.0 1.6 0.00 0.00 0.00 56 1014.5
20260510050805 19 314 0.0 1.6 0.00 0.00 0.00 57 1014.4
20260510050305 20 314 0.0 1.6 0.00 0.00 0.00 56 1014.4
20260510045805 20 314 0.0 1.6 0.00 0.00 0.00 55 1014.5
20260510045306 20 314 0.0 3.2 0.00 0.00 0.00 55 1014.4
20260510044305 20 313 1.6 4.8 0.00 0.00 0.00 55 1014.3
20260510043804 20 348 0.0 3.2 0.00 0.00 0.00 54 1014.2
20260510043305 20 351 1.6 8.0 0.00 0.00 0.00 53 1014.3
20260510042804 20 345 3.2 4.8 0.00 0.00 0.00 53 1014.2
20260510042307 21 326 1.6 4.8 0.00 0.00 0.00 52 1014.1
20260510041804 21 326 0.0 4.8 0.00 0.00 0.00 52 1014.1
20260510041304 21 304 0.0 4.8 0.00 0.00 0.00 52 1013.8
20260510035804 21 0 0.0 1.6 0.00 0.00 0.00 51 1013.7
20260510035306 21 0 0.0 1.6 0.00 0.00 0.00 49 1013.7
20260510034804 21 0 0.0 1.6 0.00 0.00 0.00 50 1013.6
20260510034305 21 0 1.6 3.2 0.00 0.00 0.00 49 1013.6
20260510033805 22 0 1.6 4.8 0.00 0.00 0.00 48 1013.5
20260510033304 22 330 3.2 4.8 0.00 0.00 0.00 47 1013.5
20260510032804 22 330 3.2 4.8 0.00 0.00 0.00 47 1013.4
20260510032306 22 0 3.2 9.7 0.00 0.00 0.00 47 1013.3
20260510031805 22 9 4.8 8.0 0.00 0.00 0.00 47 1013.2
20260510031305 22 3 3.2 8.0 0.00 0.00 0.00 47 1013.2
20260510030804 22 355 3.2 4.8 0.00 0.00 0.00 46 1013.2
20260510030305 22 342 3.2 8.0 0.00 0.00 0.00 46 1013.2
20260510025804 22 342 3.2 8.0 0.00 0.00 0.00 45 1013.2
20260510024808 23 6 3.2 4.8 0.00 0.00 0.00 45 1013.2
20260510024307 23 337 4.8 8.0 0.00 0.00 0.00 44 1013.1
20260510023307 23 14 3.2 9.7 0.00 0.00 0.00 42 1013.2
20260510022807 24 350 8.0 12.9 0.00 0.00 0.00 42 1013.2
20260510020807 24 19 6.4 12.9 0.00 0.00 0.00 41 1013.2
20260510020308 24 44 3.2 12.9 0.00 0.00 0.00 41 1013.2
20260510015807 24 348 6.4 12.9 0.00 0.00 0.00 40 1013.3
20260510014808 25 45 3.2 8.0 0.00 0.00 0.00 39 1013.4
20260510013807 25 345 6.4 14.5 0.00 0.00 0.00 39 1013.4
20260510013307 25 40 4.8 11.3 0.00 0.00 0.00 37 1013.5
20260510012807 25 9 8.0 12.9 0.00 0.00 0.00 35 1013.5
20260510012307 25 12 4.8 16.1 0.00 0.00 0.00 34 1013.5
20260510011807 25 16 8.0 16.1 0.00 0.00 0.00 33 1013.6
20260510011307 26 358 3.2 4.8 0.00 0.00 0.00 34 1013.6
20260510005807 27 28 1.6 4.8 0.00 0.00 0.00 30 1013.6
20260510005307 26 267 1.6 4.8 0.00 0.00 0.00 30 1013.5
20260510004807 26 317 3.2 9.7 0.00 0.00 0.00 30 1013.6
20260510004307 26 312 3.2 4.8 0.00 0.00 0.00 30 1013.7
20260510003807 26 320 3.2 4.8 0.00 0.00 0.00 30 1013.7
20260510003307 26 273 3.2 9.7 0.00 0.00 0.00 31 1013.7
20260510002807 26 310 1.6 9.7 0.00 0.00 0.00 31 1013.7
20260510002307 26 264 4.8 9.7 0.00 0.00 0.00 32 1013.7
20260510001807 26 328 4.8 19.3 0.00 0.00 0.00 31 1013.9
20260510001307 26 345 3.2 12.9 0.00 0.00 0.00 31 1014.0
20260510000806 26 316 3.2 4.8 0.00 0.00 0.00 30 1014.0
20260510000307 26 5 3.2 4.8 0.00 0.00 0.00 30 1014.1
20260509235807 26 351 3.2 8.0 0.00 0.00 0.00 32 1014.1
20260509235307 26 338 6.4 11.3 0.00 0.00 0.00 33 1014.1
20260509234307 26 294 3.2 12.9 0.00 0.00 0.00 33 1014.1
20260509233307 26 350 4.8 14.5 0.00 0.00 0.00 36 1014.2
20260509232807 26 346 3.2 19.3 0.00 0.00 0.00 36 1014.2
20260509232307 26 344 3.2 16.1 0.00 0.00 0.00 37 1014.3
20260509231808 25 9 9.7 16.1 0.00 0.00 0.00 37 1014.3
20260509231307 26 284 4.8 12.9 0.00 0.00 0.00 37 1014.5
20260509230807 26 2 4.8 9.7 0.00 0.00 0.00 38 1014.5
20260509230307 26 19 4.8 11.3 0.00 0.00 0.00 40 1014.6
20260509225807 25 205 1.6 11.3 0.00 0.00 0.00 43 1014.7
20260509225307 25 259 4.8 14.5 0.00 0.00 0.00 41 1014.7
20260509224306 25 323 4.8 11.3 0.00 0.00 0.00 42 1015.0
20260509223807 25 298 8.0 16.1 0.00 0.00 0.00 45 1015.2
20260509222806 25 290 3.2 12.9 0.00 0.00 0.00 43 1015.5
20260509222307 25 299 6.4 12.9 0.00 0.00 0.00 44 1015.5
20260509221807 24 283 6.4 11.3 0.00 0.00 0.00 46 1015.7
20260509220306 24 215 1.6 11.3 0.00 0.00 0.00 47 1015.8
20260509215806 24 237 6.4 19.3 0.00 0.00 0.00 45 1016.0
20260509215307 23 231 4.8 12.9 0.00 0.00 0.00 45 1016.0
20260509214807 23 353 4.8 9.7 0.00 0.00 0.00 45 1016.0
20260509214307 23 222 4.8 16.1 0.00 0.00 0.00 47 1016.0
20260509213806 24 299 6.4 12.9 0.00 0.00 0.00 46 1016.1
20260509213306 23 302 3.2 9.7 0.00 0.00 0.00 40 1016.1
20260509212307 23 292 3.2 4.8 0.00 0.00 0.00 42 1016.4
20260509211806 23 276 6.4 14.5 0.00 0.00 0.00 42 1016.3
20260509211307 23 318 9.7 20.9 0.00 0.00 0.00 43 1016.3
20260509210306 23 302 8.0 14.5 0.00 0.00 0.00 42 1016.5
20260509205806 23 268 4.8 11.3 0.00 0.00 0.00 42 1016.5
20260509205307 23 0 3.2 4.8 0.00 0.00 0.00 42 1016.4
20260509204806 22 341 3.2 12.9 0.00 0.00 0.00 44 1016.5
20260509204307 22 331 6.4 14.5 0.00 0.00 0.00 43 1016.5
20260509202307 22 282 9.7 16.1 0.00 0.00 0.00 46 1016.7
20260509201806 23 279 4.8 12.9 0.00 0.00 0.00 45 1016.9
20260509201307 22 42 6.4 16.1 0.00 0.00 0.00 44 1016.8
20260509200806 22 293 4.8 12.9 0.00 0.00 0.00 45 1016.8
20260509200306 22 331 8.0 19.3 0.00 0.00 0.00 48 1017.1
20260509195806 22 9 9.7 19.3 0.00 0.00 0.00 48 1017.2
20260509195307 21 278 11.3 20.9 0.00 0.00 0.00 48 1017.2
20260509194306 21 281 4.8 9.7 0.00 0.00 0.00 48 1017.3
20260509193807 21 341 3.2 12.9 0.00 0.00 0.00 49 1017.4
20260509193306 21 7 8.0 14.5 0.00 0.00 0.00 48 1017.5
20260509192806 21 12 11.3 16.1 0.00 0.00 0.00 48 1017.5
20260509192306 21 5 3.2 12.9 0.00 0.00 0.00 49 1017.5
20260509191806 21 358 1.6 14.5 0.00 0.00 0.00 51 1017.6
20260509191307 21 30 8.0 14.5 0.00 0.00 0.00 51 1017.7
20260509190307 20 330 3.2 12.9 0.00 0.00 0.00 54 1017.8
20260509185806 20 4 8.0 19.3 0.00 0.00 0.00 55 1017.9
20260509184806 20 304 3.2 19.3 0.00 0.00 0.00 55 1017.9
20260509183806 20 62 6.4 14.5 0.00 0.00 0.00 56 1018.2
20260509183306 20 269 3.2 19.3 0.00 0.00 0.00 57 1018.2
20260509182806 20 47 6.4 14.5 0.00 0.00 0.00 57 1018.4
20260509182307 19 37 4.8 12.9 0.00 0.00 0.00 59 1018.4
20260509181807 19 336 4.8 14.5 0.00 0.00 0.00 60 1018.5
20260509181306 19 8 6.4 12.9 0.00 0.00 0.00 61 1018.5
20260509180806 19 351 3.2 4.8 0.00 0.00 0.00 63 1018.4
20260509180307 18 49 3.2 9.7 0.00 0.00 0.00 64 1018.4
20260509175806 18 345 4.8 9.7 0.00 0.00 0.00 65 1018.4
20260509174806 18 3 3.2 8.0 0.00 0.00 0.00 67 1018.6
20260509174306 17 9 1.6 9.7 0.00 0.00 0.00 68 1018.6
20260509173306 17 340 4.8 9.7 0.00 0.00 0.00 69 1018.8
20260509172807 17 346 4.8 9.7 0.00 0.00 0.00 69 1018.9
20260509172307 17 20 3.2 11.3 0.00 0.00 0.00 69 1019.0
20260509171806 17 33 3.2 11.3 0.00 0.00 0.00 71 1019.1
20260509171307 16 330 3.2 4.8 0.00 0.00 0.00 72 1019.2
20260509170306 16 320 3.2 12.9 0.00 0.00 0.00 72 1019.3
20260509165307 16 339 8.0 12.9 0.00 0.00 0.00 73 1019.5
20260509164806 16 46 4.8 9.7 0.00 0.00 0.00 73 1019.4
20260509164306 16 10 4.8 8.0 0.00 0.00 0.00 74 1019.5
20260509163806 15 16 1.6 4.8 0.00 0.00 0.00 75 1019.5
20260509163306 15 283 4.8 14.5 0.00 0.00 0.00 76 1019.7
20260509162806 15 295 4.8 8.0 0.00 0.00 0.00 76 1019.7
20260509162307 15 32 3.2 8.0 0.00 0.00 0.00 78 1019.7
20260509161306 14 339 1.6 8.0 0.00 0.00 0.00 78 1020.0